sat.trackr.live / text

‹ back to catalog

STARLINK-2046

NORAD 47354 · 2021-005F

PAYLOAD ACTIVE UNKNOWN

§ Identity

Operator
Country
US
Launch date
2021-01-20
Launch site
AFETR
Launch vehicle
Mass (kg)
RCS (m²)

Purposes: comms

External: N2YO · Heavens-Above · Gunter

§ Orbital elements

Epoch: 2026-05-24T22:33:07.455168Z

Period
94.01 min
Inclination
53.1623°
Eccentricity
0.0001278
Mean motion
15.31712359 rev/d
Perigee alt
469.8 km
Apogee alt
471.6 km
Semi-major
6,848.8 km
B*
5.8858e-5
RAAN
29.3381°
Arg perigee
91.9564°
Mean anomaly
268.1584°
Rev number
29,525

§ Raw data

STARLINK-20461 47354U 21005F   26144.93966962  .00001462  00000+0  58858-4 0  99982 47354  53.1623  29.3381 0001278  91.9564 268.1584 15.31712359295257

JSON: /api/v1/satellites/47354 · /tle

For live sub-satellite position, see the globe view (requires WebGL).

§ Visibility from observer

Set your observer location to see the next 7 days of passes ≥ 10°. The values pass through the URL so the page stays shareable.

No JS? Fill the form by hand. The geolocation button needs JavaScript.